DW9686 Weather Reports


time (UTC)temp
F
wind
direction
speed
knots
gust
knots
rain 1hr
in
rain 24hr
in
rain mn
in
humidity
%
barometer
mb
20260503001536 86 48 2.6 10.4 0.00 0.00 0.00 24 1010.9
20260503000029 86 74 4.3 13.0 0.00 0.00 0.00 24 1010.8
20260502234545 86 46 6.1 10.4 0.00 0.00 0.00 24 1011.0
20260502233035 86 40 6.1 11.3 0.00 0.00 0.00 25 1011.1
20260502231534 86 47 4.3 9.6 0.00 0.00 0.00 26 1011.3
20260502230033 86 49 5.2 9.6 0.00 0.00 0.00 26 1011.3
20260502224532 86 55 7.0 12.2 0.00 0.00 0.00 27 1011.5
20260502223032 86 51 3.5 8.7 0.00 0.00 0.00 30 1011.7
20260502221535 85 72 4.3 7.8 0.00 0.00 0.00 31 1011.8
20260502220034 85 0 0.0 7.0 0.00 0.00 0.00 31 1012.0
20260502214531 84 85 2.6 7.0 0.00 0.00 0.00 34 1012.1
20260502213042 84 73 3.5 9.6 0.00 0.00 0.00 35 1012.2
20260502211537 84 49 2.6 6.1 0.00 0.00 0.00 35 1012.3
20260502210034 83 48 4.3 9.6 0.00 0.00 0.00 36 1012.5
20260502204534 83 35 2.6 9.6 0.00 0.00 0.00 35 1012.7
20260502203039 82 328 2.6 7.8 0.00 0.00 0.00 37 1012.8
20260502201537 81 304 1.7 6.1 0.00 0.00 0.00 40 1013.1
20260502200037 80 307 0.9 7.0 0.00 0.00 0.00 41 1013.3
20260502194531 79 304 1.7 7.8 0.00 0.00 0.00 46 1013.5
20260502193046 78 291 3.5 8.7 0.00 0.00 0.00 46 1013.7
20260502191537 77 325 2.6 7.8 0.00 0.00 0.00 46 1013.9
20260502190036 76 327 3.5 7.8 0.00 0.00 0.00 50 1014.0
20260502184537 75 329 3.5 7.8 0.00 0.00 0.00 50 1014.2
20260502183035 74 315 2.6 7.0 0.00 0.00 0.00 50 1014.4
20260502181536 72 326 4.3 8.7 0.00 0.00 0.00 52 1014.2
20260502163033 63 323 4.3 9.6 0.00 0.00 0.00 65 1014.5
20260502161532 62 334 3.5 7.0 0.00 0.00 0.00 66 1014.4
20260502151536 59 5 3.5 7.8 0.00 0.00 0.00 69 1014.1
20260502123033 56 9 4.3 9.6 0.00 0.00 0.00 68 1013.5
20260502121535 56 9 4.3 7.8 0.00 0.00 0.00 68 1013.5
20260502114534 56 11 4.3 7.8 0.00 0.00 0.00 69 1013.4
20260502113039 56 12 4.3 7.8 0.00 0.00 0.00 69 1013.4
20260502111530 56 13 3.5 7.8 0.00 0.00 0.00 69 1013.2
20260502110036 56 12 4.3 7.8 0.00 0.00 0.00 69 1013.1
20260502104537 56 12 2.6 7.0 0.00 0.00 0.00 69 1013.4
20260502103034 56 12 2.6 7.0 0.00 0.00 0.00 69 1013.4
20260502101535 56 12 4.3 8.7 0.00 0.00 0.00 69 1013.2
20260502071532 61 12 3.5 7.8 0.00 0.00 0.00 63 1013.1
20260502070052 61 12 3.5 7.0 0.00 0.00 0.00 63 1013.1
20260502064530 61 12 3.5 7.0 0.00 0.00 0.00 62 1013.1
20260502063035 62 12 4.3 7.8 0.00 0.00 0.00 62 1013.1
20260502061531 61 12 3.5 7.0 0.00 0.00 0.00 64 1013.1
20260502060040 62 12 2.6 5.2 0.00 0.00 0.00 63 1013.0
20260502054540 62 12 3.5 7.0 0.00 0.00 0.00 62 1013.2
20260502053031 62 12 2.6 6.1 0.00 0.00 0.00 62 1013.1
20260502051534 63 12 3.5 6.1 0.00 0.00 0.00 61 1013.1
20260502050032 64 12 2.6 4.3 0.00 0.00 0.00 59 1013.1
20260502044531 64 12 2.6 7.0 0.00 0.00 0.00 59 1013.0
20260502043037 64 12 1.7 4.3 0.00 0.00 0.00 59 1013.1
20260502041556 65 12 1.7 4.3 0.00 0.00 0.00 58 1013.1
20260502040048 65 12 1.7 4.3 0.00 0.00 0.00 56 1013.0
20260502034533 66 12 2.6 4.3 0.00 0.00 0.00 57 1012.9
20260502033034 67 12 1.7 3.5 0.00 0.00 0.00 54 1012.8
20260502031533 68 12 1.7 3.5 0.00 0.00 0.00 53 1012.4
20260502030040 69 12 0.9 2.6 0.00 0.00 0.00 52 1012.4
20260502024532 70 12 1.7 3.5 0.00 0.00 0.00 50 1012.3
20260502023046 71 12 1.7 3.5 0.00 0.00 0.00 51 1012.3
20260502021532 72 12 1.7 3.5 0.00 0.00 0.00 51 1012.4
20260502020032 73 12 0.9 3.5 0.00 0.00 0.00 49 1012.4
20260502014538 74 12 1.7 4.3 0.00 0.00 0.00 46 1012.5
20260502013032 76 12 1.7 3.5 0.00 0.00 0.00 44 1012.7
20260502011538 77 12 2.6 6.1 0.00 0.00 0.00 42 1012.7
20260502010031 78 12 1.7 5.2 0.00 0.00 0.00 43 1012.9
20260502004530 78 12 3.5 7.0 0.00 0.00 0.00 39 1013.0
20260502003033 78 13 2.6 7.0 0.00 0.00 0.00 40 1013.1